Weather History for Rome, OR

Change the Weather History Date:

Thursday, March 13, 2014

  Actual Average Record
Temperature  
Mean Temperature 44 °F 39 °F  
Max Temperature 64 °F 53 °F 73 °F (1992)
Min Temperature 23 °F 26 °F 3 °F (2006)
Degree Days  
Heating Degree Days 22 26  
Month to date heating degree days 350  
Since 1 July heating degree days 5084  
Cooling Degree Days 0 0  
Month to date cooling degree days 0  
Year to date cooling degree days 0  
Moisture  
Dew Point 18 °F    
Average Humidity 46    
Maximum Humidity 85    
Minimum Humidity 12    
Precipitation  
Precipitation 0.00 in 0.04 in 0.28 in (1995)
Month to date precipitation 0.36  
Year to date precipitation 1.77  
Sea Level Pressure  
Sea Level Pressure 30.08 in    
Wind  
Wind Speed 7 mph (South)    
Max Wind Speed 12 mph    
Max Gust Speed -    
T = Trace of Precipitation, MM = Missing Value Source: NWS Daily Summary

Daily Weather History Graph

Daily Weather History Graph

Search for Another Location

Airport:

Trip Planner

Search our weather history database for the weather conditions in past years. The results will help you decide how hot, cold, wet, or windy it might be!

Date:

Astronomy

Mar. 13, 2014 Rise Set
Actual Time 7:06 AM PDT 6:55 PM PDT
Civil Twilight 6:38 AM PDT 7:23 PM PDT
Nautical Twilight 6:05 AM PDT 7:56 PM PDT
Astronomical Twilight 5:32 AM PDT 8:29 PM PDT
Moon 4:23 PM PDT (3/13) 5:19 AM PDT (3/13)
Length of Visible Light 12h 45m
Length of Day
11h 48m
Waxing Gibbous, 92% of the Moon is Illuminated
Mar 13
Waxing Gibbous
Mar 16
Full
Mar 23
Last Quarter
Mar 30
New
Apr 7
First Quarter

Hourly Weather History & Observations

Time (PDT) Temp. Windchill Dew Point Humidity Pressure Visibility Wind Dir Wind Speed Gust Speed Precip Events Conditions
12:52 AM 30.9 °F 22.8 °F 21.9 °F 69% 30.18 in - SE 9.2 mph - N/A   Unknown
1:52 AM 25.0 °F 16.3 °F 19.9 °F 81% 30.18 in - South 8.1 mph - N/A   Unknown
2:52 AM 26.1 °F 19.4 °F 21.0 °F 81% 30.15 in - WSW 5.8 mph - N/A   Unknown
3:52 AM 24.1 °F 15.2 °F 19.0 °F 81% 30.12 in - South 8.1 mph - N/A   Unknown
4:52 AM 26.1 °F 17.6 °F 21.0 °F 81% 30.13 in - South 8.1 mph - N/A   Unknown
5:52 AM 23.0 °F - 19.0 °F 85% 30.14 in - Calm Calm - N/A   Unknown
6:52 AM 26.1 °F 20.5 °F 19.0 °F 75% 30.14 in - South 4.6 mph - N/A   Unknown
7:52 AM 26.1 °F 19.4 °F 19.9 °F 78% 30.17 in - West 5.8 mph - N/A   Unknown
8:52 AM 37.0 °F 34.5 °F 24.1 °F 59% 30.14 in - WSW 3.5 mph - N/A   Unknown
9:52 AM 44.1 °F 42.5 °F 24.1 °F 45% 30.14 in - Variable 3.5 mph - N/A   Unknown
10:52 AM 51.1 °F - 21.0 °F 31% 30.12 in - Calm Calm - N/A   Unknown
11:52 AM 55.0 °F - 17.1 °F 23% 30.10 in - Calm Calm - N/A   Unknown
12:52 PM 57.9 °F - 12.9 °F 17% 30.06 in - North - - N/A   Unknown
1:52 PM 59.0 °F - 12.0 °F 16% 30.04 in - North - - N/A   Unknown
2:52 PM 62.1 °F - 10.9 °F 13% 30.01 in - SW 5.8 mph - N/A   Unknown
3:52 PM 62.1 °F - 8.1 °F 12% 30.01 in - SSW 3.5 mph - N/A   Unknown
4:52 PM 64.0 °F - 10.0 °F 12% 30.00 in - WNW 8.1 mph - N/A   Unknown
5:52 PM 61.0 °F - 14.0 °F 16% 30.00 in - North 9.2 mph - N/A   Unknown
6:52 PM 54.0 °F - 17.1 °F 23% 30.03 in - North 5.8 mph - N/A   Unknown
7:52 PM 48.0 °F - 19.9 °F 33% 30.05 in - ENE 9.2 mph - N/A   Unknown
8:52 PM 44.1 °F 39.5 °F 18.0 °F 35% 30.03 in - ENE 8.1 mph - N/A   Unknown
9:52 PM 37.9 °F 31.5 °F 19.0 °F 47% 30.04 in - SE 9.2 mph - N/A   Unknown
10:52 PM 41.0 °F 34.3 °F 19.9 °F 43% 30.01 in - SE 11.5 mph - N/A   Unknown
11:52 PM 37.9 °F 30.5 °F 19.9 °F 48% 30.01 in - SE 11.5 mph - N/A   Unknown